TimeHST,TemperatureF,Dew PointF,Humidity,Sea Level PressureIn,VisibilityMPH,Wind Direction,Wind SpeedMPH,Gust SpeedMPH,PrecipitationIn,Events,Conditions,WindDirDegrees,DateUTC
12:53 AM,69.6,64.9,85,30.07,10.0,NNE,10.4,-,0.00,,Mostly Cloudy,30,2013-01-02 10:53:00
1:53 AM,69.1,64.0,84,30.05,10.0,NNW,8.1,-,N/A,,Mostly Cloudy,340,2013-01-02 11:53:00
2:53 AM,66.9,64.9,93,30.04,10.0,NNW,3.5,-,N/A,,Mostly Cloudy,340,2013-01-02 12:53:00
3:53 AM,69.6,64.9,85,30.03,10.0,NE,8.1,-,N/A,,Mostly Cloudy,50,2013-01-02 13:53:00
4:53 AM,68.0,64.9,90,30.03,10.0,Calm,Calm,-,N/A,,Mostly Cloudy,0,2013-01-02 14:53:00
5:53 AM,68.0,64.9,90,30.04,10.0,East,4.6,-,N/A,,Mostly Cloudy,80,2013-01-02 15:53:00
6:53 AM,68.0,66.0,93,30.04,10.0,Calm,Calm,-,N/A,,Mostly Cloudy,0,2013-01-02 16:53:00
7:53 AM,68.0,66.0,93,30.05,10.0,ENE,13.8,20.7,N/A,,Mostly Cloudy,70,2013-01-02 17:53:00
8:53 AM,69.1,66.0,90,30.07,10.0,ENE,10.4,-,N/A,,Mostly Cloudy,60,2013-01-02 18:53:00
9:11 AM,69.8,66.2,88,30.08,10.0,ENE,8.1,-,N/A,,Mostly Cloudy,70,2013-01-02 19:11:00
9:23 AM,69.8,66.2,88,30.08,10.0,NE,10.4,-,N/A,,Mostly Cloudy,50,2013-01-02 19:23:00
9:53 AM,71.1,66.9,87,30.08,10.0,NE,9.2,-,0.00,,Mostly Cloudy,50,2013-01-02 19:53:00
10:53 AM,72.0,66.0,81,30.07,10.0,ENE,12.7,-,N/A,,Mostly Cloudy,60,2013-01-02 20:53:00
11:05 AM,71.6,66.2,83,30.07,10.0,NE,11.5,-,N/A,,Overcast,40,2013-01-02 21:05:00
11:13 AM,71.6,66.2,83,30.07,10.0,NE,11.5,19.6,N/A,,Mostly Cloudy,40,2013-01-02 21:13:00
11:53 AM,73.0,66.0,79,30.05,10.0,NNE,11.5,19.6,N/A,,Mostly Cloudy,30,2013-01-02 21:53:00
12:27 PM,71.6,66.2,83,30.04,10.0,NNE,11.5,-,0.00,,Mostly Cloudy,30,2013-01-02 22:27:00
12:53 PM,72.0,66.0,81,30.03,10.0,NNE,11.5,-,0.00,,Mostly Cloudy,30,2013-01-02 22:53:00
1:50 PM,71.6,66.2,83,30.00,10.0,ENE,9.2,-,N/A,,Mostly Cloudy,60,2013-01-02 23:50:00
1:53 PM,71.1,66.9,87,30.00,10.0,ENE,8.1,-,N/A,,Mostly Cloudy,70,2013-01-02 23:53:00
2:40 PM,69.8,68.0,94,29.98,8.0,NE,10.4,-,0.00,Rain,Light Rain,50,2013-01-03 00:40:00
2:48 PM,73.4,66.2,78,29.98,10.0,NE,12.7,-,0.00,,Mostly Cloudy,50,2013-01-03 00:48:00
2:53 PM,73.0,66.9,81,29.98,10.0,NNE,11.5,-,0.00,,Mostly Cloudy,30,2013-01-03 00:53:00
3:53 PM,70.0,66.9,90,29.99,9.0,NE,16.1,23.0,0.00,Rain,Light Rain,50,2013-01-03 01:53:00
4:53 PM,70.0,66.9,90,29.99,10.0,NNE,9.2,-,0.00,,Mostly Cloudy,30,2013-01-03 02:53:00
5:53 PM,69.1,66.9,93,30.00,10.0,NNE,9.2,19.6,0.00,,Mostly Cloudy,20,2013-01-03 03:53:00
6:53 PM,68.0,66.9,96,30.01,10.0,NNE,8.1,17.3,0.00,,Mostly Cloudy,30,2013-01-03 04:53:00
7:53 PM,66.9,66.9,100,30.04,10.0,NE,11.5,-,0.00,,Mostly Cloudy,50,2013-01-03 05:53:00
8:53 PM,66.9,66.9,100,30.05,10.0,NE,4.6,-,0.00,,Mostly Cloudy,40,2013-01-03 06:53:00
9:53 PM,68.7,66.9,94,30.06,10.0,NNE,8.1,-,0.00,Rain,Light Rain,30,2013-01-03 07:53:00
10:11 PM,69.8,66.2,88,30.06,10.0,ENE,9.2,-,0.00,,Mostly Cloudy,60,2013-01-03 08:11:00
10:53 PM,69.6,66.0,88,30.05,7.0,ENE,4.6,-,0.00,Rain,Light Rain,60,2013-01-03 08:53:00
11:53 PM,69.6,66.0,88,30.05,10.0,Calm,Calm,-,0.00,,Mostly Cloudy,0,2013-01-03 09:53:00